DW0148 Weather Reports


time (UTC)temp
F
wind
direction
speed
knots
gust
knots
rain 1hr
in
rain 24hr
in
rain mn
in
humidity
%
barometer
mb
20260904211953 90 26 0.0 0.0 0.00 0.00 0.00 72 1011.5
20260904211452 90 28 0.0 0.0 0.00 0.00 0.00 78 1011.5
20260904210951 90 28 0.0 0.0 0.00 0.00 0.00 75 1011.9
20260904210450 91 28 0.0 0.0 0.00 0.00 0.00 75 1011.9
20260904205949 91 29 0.0 0.0 0.00 0.00 0.00 74 1011.9
20260904205416 92 28 0.0 0.0 0.00 0.00 0.00 74 1011.9
20260904204914 92 29 0.0 0.0 0.00 0.00 0.00 74 1012.2
20260904204414 92 29 0.0 0.0 0.00 0.00 0.00 73 1012.2
20260904203841 92 29 0.0 0.0 0.00 0.00 0.00 70 1012.2
20260904203339 92 28 0.0 0.0 0.00 0.00 0.00 69 1012.2
20260904202807 92 29 0.0 0.0 0.00 0.00 0.00 71 1012.2
20260904202306 91 29 0.0 0.0 0.00 0.00 0.00 70 1012.5
20260904201805 91 29 0.0 0.0 0.00 0.00 0.00 71 1012.5
20260904201304 91 28 0.0 0.0 0.00 0.00 0.00 69 1012.5
20260904200803 92 29 0.0 0.0 0.00 0.00 0.00 66 1012.5
20260904200302 92 29 0.0 0.0 0.00 0.00 0.00 65 1012.5
20260904195801 93 29 0.0 0.0 0.00 0.00 0.00 64 1012.9
20260904195300 93 41 0.0 0.0 0.00 0.00 0.00 61 1012.9
20260904194759 93 39 0.0 0.0 0.00 0.00 0.00 60 1012.9
20260904194258 93 324 0.0 0.0 0.00 0.00 0.00 59 1012.9
20260904193756 94 320 0.0 0.0 0.00 0.00 0.00 57 1013.2
20260904193224 94 27 0.0 0.0 0.00 0.00 0.00 55 1013.2
20260904192723 94 17 0.0 0.0 0.00 0.00 0.00 57 1013.2
20260904192222 95 41 0.0 0.0 0.00 0.00 0.00 57 1013.2
20260904191721 96 148 0.0 0.0 0.00 0.00 0.00 55 1013.2
20260904191118 96 151 0.0 0.0 0.00 0.00 0.00 53 1013.5
20260904190616 96 150 0.0 0.0 0.00 0.00 0.00 52 1013.5
20260904190115 97 170 0.0 0.0 0.00 0.00 0.00 53 1013.5
20260904185512 97 159 0.0 0.0 0.00 0.00 0.00 53 1013.5
20260904185011 97 180 0.0 0.0 0.00 0.00 0.00 55 1013.9
20260904184510 97 180 0.0 0.0 0.00 0.00 0.00 57 1013.5
20260904183938 97 170 0.0 0.0 0.00 0.00 0.00 56 1013.5
20260904183437 97 179 0.0 0.0 0.00 0.00 0.00 59 1013.9
20260904182936 97 176 0.0 0.0 0.00 0.00 0.00 59 1013.9
20260904182436 96 160 0.0 0.0 0.00 0.00 0.00 58 1013.9
20260904181933 96 177 0.0 0.0 0.00 0.00 0.00 58 1013.9
20260904181433 96 159 0.0 0.0 0.00 0.00 0.00 60 1013.9
20260904180931 95 172 0.0 0.0 0.00 0.00 0.00 63 1014.2
20260904180430 95 151 0.0 0.0 0.00 0.00 0.00 61 1014.2
20260904175929 94 176 0.0 0.0 0.00 0.00 0.00 59 1014.2
20260904175428 94 177 0.0 0.0 0.00 0.00 0.00 59 1014.2
20260904174856 94 179 0.0 0.0 0.00 0.00 0.00 62 1014.2
20260904174324 94 180 0.0 0.0 0.00 0.00 0.00 59 1014.6
20260904173721 94 179 0.0 0.0 0.00 0.00 0.00 62 1014.6
20260904173047 94 152 0.0 0.0 0.00 0.00 0.00 62 1014.6
20260904172545 93 155 0.0 0.0 0.00 0.00 0.00 63 1014.6
20260904172043 93 151 0.0 0.0 0.00 0.00 0.00 67 1014.6
20260904171511 94 155 0.0 0.0 0.00 0.00 0.00 65 1014.9
20260904171010 93 176 0.0 0.0 0.00 0.00 0.00 65 1014.9
20260904170509 93 174 0.0 0.0 0.00 0.00 0.00 67 1014.9
20260904165935 93 155 0.0 0.0 0.00 0.00 0.00 65 1014.9
20260904165435 93 177 0.0 0.0 0.00 0.00 0.00 68 1014.9
20260904164933 93 176 0.0 0.0 0.00 0.00 0.00 67 1014.9
20260904164432 92 156 0.0 0.0 0.00 0.00 0.00 68 1015.2
20260904163900 92 176 0.0 0.0 0.00 0.00 0.00 66 1015.2
20260904163328 92 174 0.0 0.0 0.00 0.00 0.00 66 1015.2
20260904162827 92 176 0.0 0.0 0.00 0.00 0.00 68 1015.2
20260904162326 92 155 0.0 0.0 0.00 0.00 0.00 68 1015.2
20260904161824 91 176 0.0 0.0 0.00 0.00 0.00 69 1015.2
20260904161251 91 176 0.0 0.0 0.00 0.00 0.00 69 1015.6
20260904160750 91 177 0.0 0.0 0.00 0.00 0.00 70 1015.6
20260904160249 91 173 0.0 0.0 0.00 0.00 0.00 69 1015.6
20260904155716 91 159 0.0 0.0 0.00 0.00 0.00 71 1015.6
20260904155214 90 176 0.0 0.0 0.00 0.00 0.00 72 1015.6
20260904154712 90 163 0.0 0.0 0.00 0.00 0.00 72 1015.6
20260904154211 90 159 0.0 0.0 0.00 0.00 0.00 70 1015.6
20260904153711 90 165 0.0 0.0 0.00 0.00 0.00 71 1015.6
20260904153209 90 179 0.0 0.0 0.00 0.00 0.00 73 1015.6
20260904152708 90 172 0.0 0.0 0.00 0.00 0.00 71 1015.6
20260904152207 90 173 0.0 0.0 0.00 0.00 0.00 73 1015.6
20260904151706 89 167 0.0 0.0 0.00 0.00 0.00 74 1015.6
20260904151205 89 173 0.0 0.0 0.00 0.00 0.00 73 1015.6
20260904150704 89 173 0.0 0.0 0.00 0.00 0.00 73 1015.6
20260904150203 88 176 0.0 0.0 0.00 0.00 0.00 74 1015.6
20260904145701 88 174 0.0 0.0 0.00 0.00 0.00 77 1015.6
20260904145200 88 176 0.0 0.0 0.00 0.00 0.00 76 1015.6
20260904144658 87 177 0.0 0.0 0.00 0.00 0.00 77 1015.6
20260904144157 87 169 0.0 0.0 0.00 0.00 0.00 78 1015.6
20260904143625 86 160 0.0 0.0 0.00 0.00 0.00 80 1015.6
20260904143124 86 148 0.0 0.0 0.00 0.00 0.00 79 1015.6
20260904142621 86 148 0.0 0.0 0.00 0.00 0.00 79 1015.6
20260904142120 85 148 0.0 0.0 0.00 0.00 0.00 79 1015.2
20260904141619 85 150 0.0 0.0 0.00 0.00 0.00 81 1015.2
20260904141117 84 146 0.0 0.0 0.00 0.00 0.00 82 1015.2
20260904140616 84 146 0.0 0.0 0.00 0.00 0.00 83 1015.2
20260904140115 83 148 0.0 0.0 0.00 0.00 0.00 83 1015.2
20260904135614 82 148 0.0 0.0 0.00 0.00 0.00 85 1015.2
20260904135113 82 148 0.0 0.0 0.00 0.00 0.00 85 1015.2
20260904134612 82 149 0.0 0.0 0.00 0.00 0.00 85 1015.2
20260904134110 82 150 0.0 0.0 0.00 0.00 0.00 87 1015.2
20260904133609 82 150 0.0 0.0 0.00 0.00 0.00 86 1015.2
20260904133108 82 149 0.0 0.0 0.00 0.00 0.00 87 1015.2
20260904132504 81 146 0.0 0.0 0.00 0.00 0.00 87 1015.6
20260904132003 80 149 0.0 0.0 0.00 0.00 0.00 90 1015.6
20260904131501 79 150 0.0 0.0 0.00 0.00 0.00 93 1015.2
20260904130857 77 150 0.0 0.0 0.00 0.00 0.00 95 1015.2
20260904130356 76 149 0.0 0.0 0.00 0.00 0.00 95 1015.2
20260904125855 75 150 0.0 0.0 0.00 0.00 0.00 95 1015.2
20260904125354 75 152 0.0 0.0 0.00 0.00 0.00 95 1015.6
20260904124852 74 152 0.0 0.0 0.00 0.00 0.00 95 1015.6
20260904124319 74 153 0.0 0.0 0.00 0.00 0.00 95 1015.2
20260904123818 74 152 0.0 0.0 0.00 0.00 0.00 95 1015.2
20260904123246 73 153 0.0 0.0 0.00 0.00 0.00 95 1015.2
20260904122745 73 152 0.0 0.0 0.00 0.00 0.00 95 1015.2
20260904122244 73 153 0.0 0.0 0.00 0.00 0.00 95 1015.2
20260904121711 73 152 0.0 0.0 0.00 0.00 0.00 95 1015.2
20260904121209 73 152 0.0 0.0 0.00 0.00 0.00 95 1015.2
20260904120708 72 152 0.0 0.0 0.00 0.00 0.00 95 1015.2
20260904120136 72 153 0.0 0.0 0.00 0.00 0.00 95 1015.2
20260904115635 72 152 0.0 0.0 0.00 0.00 0.00 95 1015.2
20260904115134 72 152 0.0 0.0 0.00 0.00 0.00 95 1015.2
20260904114633 72 152 0.0 0.0 0.00 0.00 0.00 95 1015.2
20260904114133 72 152 0.0 0.0 0.00 0.00 0.00 95 1014.9
20260904113632 72 153 0.0 0.0 0.00 0.00 0.00 95 1014.9
20260904113131 72 152 0.0 0.0 0.00 0.00 0.00 95 1014.9
20260904112630 72 152 0.0 0.0 0.00 0.00 0.00 95 1014.9
20260904112057 72 152 0.0 0.0 0.00 0.00 0.00 95 1014.9
20260904111556 72 153 0.0 0.0 0.00 0.00 0.00 95 1014.6
20260904111055 72 152 0.0 0.0 0.00 0.00 0.00 95 1014.6
20260904110522 72 152 0.0 0.0 0.00 0.00 0.00 95 1014.6
20260904110021 72 152 0.0 0.0 0.00 0.00 0.00 95 1014.6
20260904105520 72 153 0.0 0.0 0.00 0.00 0.00 95 1014.2
20260904104948 72 153 0.0 0.0 0.00 0.00 0.00 95 1014.2
20260904104447 72 153 0.0 0.0 0.00 0.00 0.00 95 1014.2
20260904103945 72 153 0.0 0.0 0.00 0.00 0.00 95 1014.2
20260904103444 72 153 0.0 0.0 0.00 0.00 0.00 95 1014.2
20260904102943 73 153 0.0 0.0 0.00 0.00 0.00 95 1014.2
20260904102442 73 153 0.0 0.0 0.00 0.00 0.00 95 1014.2
20260904101941 73 153 0.0 0.0 0.00 0.00 0.00 95 1014.2
20260904101408 73 153 0.0 0.0 0.00 0.00 0.00 95 1014.2
20260904100906 73 153 0.0 0.0 0.00 0.00 0.00 95 1014.2
20260904100231 73 153 0.0 0.0 0.00 0.00 0.00 95 1014.2
20260904095659 73 153 0.0 0.0 0.00 0.00 0.00 95 1014.2
20260904095127 73 155 0.0 0.0 0.00 0.00 0.00 95 1013.9
20260904094625 73 153 0.0 0.0 0.00 0.00 0.00 95 1013.9
20260904094124 73 153 0.0 0.0 0.00 0.00 0.00 95 1013.9
20260904093622 73 153 0.0 0.0 0.00 0.00 0.00 95 1013.9
20260904093121 73 153 0.0 0.0 0.00 0.00 0.00 95 1013.9
20260904092620 73 153 0.0 0.0 0.00 0.00 0.00 95 1013.9
20260904092119 73 153 0.0 0.0 0.00 0.00 0.00 95 1013.9
20260904091618 73 153 0.0 0.0 0.00 0.00 0.00 95 1013.9
20260904091117 73 153 0.0 0.0 0.00 0.00 0.00 95 1013.9
20260904090615 73 153 0.0 0.0 0.00 0.00 0.00 95 1013.9
20260904090114 73 153 0.0 0.0 0.00 0.00 0.00 95 1013.9
20260904085613 73 153 0.0 0.0 0.00 0.00 0.00 95 1013.9
20260904085112 73 155 0.0 0.0 0.00 0.00 0.00 95 1013.9
20260904084611 73 153 0.0 0.0 0.00 0.00 0.00 95 1013.5
20260904084110 73 153 0.0 0.0 0.00 0.00 0.00 95 1013.5
20260904083608 73 155 0.0 0.0 0.00 0.00 0.00 95 1013.9
20260904083035 73 155 0.0 0.0 0.00 0.00 0.00 95 1013.9
20260904082534 74 155 0.0 0.0 0.00 0.00 0.00 95 1013.5
20260904082032 73 155 0.0 0.0 0.00 0.00 0.00 95 1013.5
20260904081530 74 155 0.0 0.0 0.00 0.00 0.00 95 1013.5
20260904081029 74 155 0.0 0.0 0.00 0.00 0.00 95 1013.5
20260904080528 74 155 0.0 0.0 0.00 0.00 0.00 95 1013.5
20260904080027 74 155 0.0 0.0 0.00 0.00 0.00 95 1013.5
20260904075526 74 155 0.0 0.0 0.00 0.00 0.00 95 1013.5
20260904075025 74 155 0.0 0.0 0.00 0.00 0.00 95 1013.5
20260904074523 74 155 0.0 0.0 0.00 0.00 0.00 95 1013.5
20260904074021 74 155 0.0 0.0 0.00 0.00 0.00 95 1013.5
20260904073518 74 155 0.0 0.0 0.00 0.00 0.00 95 1013.5
20260904073017 74 155 0.0 0.0 0.00 0.00 0.00 95 1013.5
20260904072414 74 155 0.0 0.0 0.00 0.00 0.00 95 1013.5
20260904071914 74 155 0.0 0.0 0.00 0.00 0.00 95 1013.5
20260904071413 74 155 0.0 0.0 0.00 0.00 0.00 95 1013.5
20260904070809 74 155 0.0 0.0 0.00 0.00 0.00 95 1013.5
20260904070308 74 155 0.0 0.0 0.00 0.00 0.00 95 1013.5
20260904065806 74 155 0.0 0.0 0.00 0.00 0.00 95 1013.5
20260904065306 74 155 0.0 0.0 0.00 0.00 0.00 95 1013.9
20260904064803 74 155 0.0 0.0 0.00 0.00 0.00 95 1013.9
20260904064231 74 155 0.0 0.0 0.00 0.00 0.00 95 1013.9
20260904063730 75 155 0.0 0.0 0.00 0.00 0.00 95 1013.9
20260904063228 75 155 0.0 0.0 0.00 0.00 0.00 95 1013.9
20260904062727 75 155 0.0 0.0 0.00 0.00 0.00 95 1013.9
20260904062226 75 155 0.0 0.0 0.00 0.00 0.00 95 1013.9
20260904061725 75 155 0.0 0.0 0.00 0.00 0.00 95 1013.9
20260904061225 75 155 0.0 0.0 0.00 0.00 0.00 95 1013.9
20260904060723 75 148 0.0 0.0 0.00 0.00 0.00 95 1013.9
20260904060222 75 148 0.0 0.0 0.00 0.00 0.00 95 1013.9
20260904055721 75 148 0.0 0.0 0.00 0.00 0.00 95 1013.9
20260904055220 75 148 0.0 0.0 0.00 0.00 0.00 95 1014.2
20260904054719 75 147 0.0 0.0 0.00 0.00 0.00 95 1014.2
20260904054218 75 147 0.0 0.0 0.00 0.00 0.00 95 1014.2
20260904053717 75 146 0.0 0.0 0.00 0.00 0.00 95 1013.9
20260904053216 75 147 0.0 0.0 0.00 0.00 0.00 95 1013.9
20260904052715 75 146 0.0 0.0 0.00 0.00 0.00 95 1013.9
20260904052214 75 146 0.0 0.0 0.00 0.00 0.00 95 1013.9
20260904051713 75 146 0.0 0.0 0.00 0.00 0.00 95 1014.2
20260904051139 75 147 0.0 0.0 0.00 0.00 0.00 95 1014.2
20260904050638 75 147 0.0 0.0 0.00 0.00 0.00 95 1014.2
20260904050137 75 146 0.0 0.0 0.00 0.00 0.00 95 1014.2
20260904045636 75 147 0.0 0.0 0.00 0.00 0.00 95 1014.2
20260904045135 75 146 0.0 0.0 0.00 0.00 0.00 95 1014.2
20260904044632 76 147 0.0 0.0 0.00 0.00 0.00 95 1014.2
20260904044131 76 146 0.0 0.0 0.00 0.00 0.00 95 1014.2
20260904043630 76 146 0.0 0.0 0.00 0.00 0.00 95 1014.2
20260904043128 76 146 0.0 0.0 0.00 0.00 0.00 95 1014.2
20260904042628 76 146 0.0 0.0 0.00 0.00 0.00 95 1014.2
20260904042126 76 146 0.0 0.0 0.00 0.00 0.00 95 1014.2
20260904041554 76 146 0.0 0.0 0.00 0.00 0.00 94 1014.6
20260904041054 76 146 0.0 0.0 0.00 0.00 0.00 94 1014.6
20260904040553 76 146 0.0 0.0 0.00 0.00 0.00 94 1014.2
20260904040052 76 146 0.0 0.0 0.00 0.00 0.00 94 1014.6
20260904035551 76 146 0.0 0.0 0.00 0.00 0.00 94 1014.6
20260904035048 76 146 0.0 0.0 0.00 0.00 0.00 94 1014.6
20260904034547 76 146 0.0 0.0 0.00 0.00 0.00 94 1014.6
20260904034046 76 147 0.0 0.0 0.00 0.00 0.00 93 1014.6
20260904033545 76 146 0.0 0.0 0.00 0.00 0.00 93 1014.6
20260904033012 76 146 0.0 0.0 0.00 0.00 0.00 93 1014.6
20260904032511 76 146 0.0 0.0 0.00 0.00 0.00 93 1014.9
20260904031939 76 147 0.0 0.0 0.00 0.00 0.00 93 1014.9
20260904031437 77 146 0.0 0.0 0.00 0.00 0.00 93 1014.9
20260904030935 77 146 0.0 0.0 0.00 0.00 0.00 93 1014.9
20260904030434 77 146 0.0 0.0 0.00 0.00 0.00 93 1014.9
20260904025933 77 146 0.0 0.0 0.00 0.00 0.00 93 1014.9
20260904025431 77 143 0.0 0.0 0.00 0.00 0.00 93 1014.6
20260904024931 77 143 0.0 0.0 0.00 0.00 0.00 93 1014.6
20260904024429 77 143 0.0 0.0 0.00 0.00 0.00 93 1014.6
20260904023928 77 143 0.0 0.0 0.00 0.00 0.00 92 1014.6
20260904023427 77 142 0.0 0.0 0.00 0.00 0.00 92 1014.6
20260904022853 77 143 0.0 0.0 0.00 0.00 0.00 92 1014.6
20260904022352 77 142 0.0 0.0 0.00 0.00 0.00 91 1014.6
20260904021851 77 143 0.0 0.0 0.00 0.00 0.00 91 1014.2
20260904021350 77 144 0.0 0.0 0.00 0.00 0.00 91 1014.2
20260904020849 77 143 0.0 0.0 0.00 0.00 0.00 91 1014.2
20260904020348 77 143 0.0 0.0 0.00 0.00 0.00 90 1014.2
20260904015846 77 143 0.0 0.0 0.00 0.00 0.00 90 1014.2
20260904015345 78 143 0.0 0.0 0.00 0.00 0.00 90 1014.2
20260904014843 78 142 0.0 0.0 0.00 0.00 0.00 91 1014.2
20260904014342 78 142 0.0 0.0 0.00 0.00 0.00 91 1013.9
20260904013841 78 142 0.0 0.0 0.00 0.00 0.00 91 1013.9
20260904013340 78 142 0.0 0.0 0.00 0.00 0.00 91 1013.9
20260904012839 78 142 0.0 0.0 0.00 0.00 0.00 91 1013.9
20260904012337 78 142 0.0 0.0 0.00 0.00 0.00 91 1013.5
20260904011836 78 142 0.0 0.0 0.00 0.00 0.00 91 1013.5
20260904011303 78 142 0.0 0.0 0.00 0.00 0.00 91 1013.5
20260904010802 79 142 0.0 0.0 0.00 0.00 0.00 91 1013.5
20260904010300 79 138 0.0 0.0 0.00 0.00 0.00 91 1013.5
20260904005759 79 138 0.0 0.0 0.00 0.00 0.00 91 1013.2
20260904005257 79 138 0.0 0.0 0.00 0.00 0.00 91 1013.2
20260904004756 79 138 0.0 0.0 0.00 0.00 0.00 90 1013.2
20260904004255 80 139 0.0 0.0 0.00 0.00 0.00 90 1013.2
20260904003754 80 138 0.0 0.0 0.00 0.00 0.00 90 1013.2
20260904003253 80 138 0.0 0.0 0.00 0.00 0.00 89 1013.2
20260904002751 80 138 0.0 0.0 0.00 0.00 0.00 89 1012.9
20260904002249 81 139 0.0 0.0 0.00 0.00 0.00 89 1012.9
20260904001748 81 138 0.0 0.0 0.00 0.00 0.00 89 1012.9
20260904001216 81 139 0.0 0.0 0.00 0.00 0.00 88 1012.9
20260904000715 82 138 0.0 0.0 0.00 0.00 0.00 88 1012.9
20260904000214 82 138 0.0 0.0 0.00 0.00 0.00 88 1012.9
20260903235711 82 138 0.0 0.0 0.00 0.00 0.00 87 1012.9
20260903235209 83 138 0.0 0.0 0.00 0.00 0.00 87 1012.5
20260903234637 83 138 0.0 0.0 0.00 0.00 0.00 86 1012.5
20260903234136 84 138 0.0 0.0 0.00 0.00 0.00 86 1012.5
20260903233635 84 138 0.0 0.0 0.00 0.00 0.00 85 1012.5
20260903233134 84 138 0.0 0.0 0.00 0.00 0.00 85 1012.5
20260903232633 85 138 0.0 0.0 0.00 0.00 0.00 84 1012.5
20260903232131 85 138 0.0 0.0 0.00 0.00 0.00 83 1012.5
20260903231629 85 139 0.0 0.0 0.00 0.00 0.00 82 1012.5
20260903231128 86 138 0.0 0.0 0.00 0.00 0.00 80 1012.5
20260903230627 86 138 0.0 0.0 0.00 0.00 0.00 79 1012.5
20260903230125 86 139 0.0 0.0 0.00 0.00 0.00 77 1012.5
20260903225623 87 138 0.0 0.0 0.00 0.00 0.00 76 1012.5
20260903225120 87 138 0.0 0.0 0.00 0.00 0.00 75 1012.5
20260903224620 88 138 0.0 0.0 0.00 0.00 0.00 73 1012.5
20260903224119 89 139 0.0 0.0 0.00 0.00 0.00 73 1012.5
20260903223547 89 138 0.0 0.0 0.00 0.00 0.00 72 1012.5
20260903223046 90 138 0.0 0.0 0.00 0.00 0.00 71 1012.5
20260903222545 90 139 0.0 0.0 0.00 0.00 0.00 70 1012.5
20260903222043 91 138 0.0 0.0 0.00 0.00 0.00 71 1012.5
20260903221542 91 347 0.0 0.0 0.00 0.00 0.00 69 1012.5
20260903221042 92 347 0.0 0.0 0.00 0.00 0.00 68 1012.5
20260903220540 92 348 0.0 0.0 0.00 0.00 0.00 65 1012.5
20260903220039 93 347 0.0 0.0 0.00 0.00 0.00 63 1012.5
20260903215538 94 347 0.0 0.0 0.00 0.00 0.00 65 1012.5
20260903215037 94 347 0.0 0.0 0.00 0.00 0.00 58 1012.5
20260903214537 95 347 0.0 0.0 0.00 0.00 0.00 58 1012.5
20260903214005 95 347 0.0 0.0 0.00 0.00 0.00 58 1012.5
20260903213503 95 347 0.0 0.0 0.00 0.00 0.00 56 1012.5
20260903212931 95 347 0.0 0.0 0.00 0.00 0.00 54 1012.5
20260903212429 95 347 0.0 0.0 0.00 0.00 0.00 53 1012.5